When you browse on this site, cookies collect data to enhance your experience and personalize the content and advertising you see.
Visit our Privacy Policy to learn more. By continuing to use the site, you agree to this use of cookies and data.
  • In Austria
  • List of Countries
  • For 7 days
  • Water Temperature
  • Weather Map
  • News
  • Weather Widgets
  • user-avatar
    Login

    Hourly Weather Da Nang

    Today, 28 January, Tuesday

    Time Temperature Precipitation Wind Pressure Humidity
    00:00 +21°C° 0.1 mm 2 mps 758 mmHg 96%
    01:00 +21°C° 0 mm 2 mps 758 mmHg 96%
    02:00 +21°C° 0.1 mm 2 mps 758 mmHg 96%
    03:00 +21°C° 0.1 mm 2 mps 758 mmHg 96%
    04:00 +22°C° 0.1 mm 1 mps 758 mmHg 96%
    05:00 +22°C° 0.4 mm 1 mps 758 mmHg 95%
    06:00 +22°C° 0.4 mm 1 mps 758 mmHg 95%
    07:00 +22°C° 0 mm 1 mps 759 mmHg 96%
    08:00 +23°C° 0.7 mm 1 mps 759 mmHg 94%
    09:00 +23°C° 0.7 mm 1 mps 760 mmHg 93%
    10:00 +24°C° 0.7 mm 2 mps 760 mmHg 91%
    11:00 +24°C° 0.6 mm 2 mps 759 mmHg 91%
    12:00 +24°C° 0.6 mm 2 mps 759 mmHg 90%
    13:00 +26°C° 0 mm 3 mps 758 mmHg 77%
    14:00 +25°C° 0.2 mm 4 mps 758 mmHg 80%
    15:00 +25°C° 0.2 mm 4 mps 758 mmHg 84%
    16:00 +23°C° 0.2 mm 4 mps 758 mmHg 87%
    17:00 +22°C° 0.3 mm 4 mps 758 mmHg 90%
    18:00 +22°C° 0.3 mm 3 mps 759 mmHg 93%
    19:00 +21°C° 0.3 mm 3 mps 759 mmHg 97%
    20:00 +21°C° 0.7 mm 3 mps 760 mmHg 97%
    21:00 +21°C° 0.7 mm 3 mps 760 mmHg 97%
    22:00 +21°C° 0.7 mm 2 mps 761 mmHg 98%
    23:00 +21°C° 0.7 mm 2 mps 761 mmHg 98%

    Tomorrow, 29 January, Wednesday

    Time Temperature Precipitation Wind Pressure Humidity
    00:00 +21°C° 0.7 mm 2 mps 761 mmHg 98%
    01:00 +21°C° 0.7 mm 2 mps 760 mmHg 98%
    02:00 +21°C° 1.3 mm 2 mps 760 mmHg 98%
    03:00 +21°C° 1.3 mm 2 mps 760 mmHg 98%
    04:00 +21°C° 1.3 mm 2 mps 760 mmHg 98%
    05:00 +21°C° 1.7 mm 2 mps 760 mmHg 98%
    06:00 +21°C° 1.7 mm 2 mps 761 mmHg 98%
    07:00 +21°C° 1.7 mm 2 mps 761 mmHg 98%
    08:00 +21°C° 1 mm 3 mps 761 mmHg 98%
    09:00 +22°C° 1 mm 3 mps 762 mmHg 98%
    10:00 +22°C° 1 mm 3 mps 762 mmHg 97%
    11:00 +22°C° 1.6 mm 3 mps 762 mmHg 97%
    12:00 +22°C° 1.6 mm 3 mps 761 mmHg 97%
    13:00 +22°C° 1.6 mm 3 mps 761 mmHg 97%
    14:00 +21°C° 1.7 mm 3 mps 761 mmHg 97%
    15:00 +21°C° 1.7 mm 3 mps 760 mmHg 98%
    16:00 +21°C° 1.7 mm 3 mps 760 mmHg 98%
    17:00 +21°C° 1.1 mm 3 mps 760 mmHg 98%
    18:00 +20°C° 1.1 mm 3 mps 761 mmHg 98%
    19:00 +20°C° 1.1 mm 3 mps 761 mmHg 98%
    20:00 +20°C° 0.6 mm 2 mps 761 mmHg 98%
    21:00 +20°C° 0.6 mm 2 mps 762 mmHg 98%
    22:00 +20°C° 0.6 mm 2 mps 762 mmHg 97%
    23:00 +20°C° 1.2 mm 2 mps 762 mmHg 98%

    Day after tomorrow, 30 January, Thursday

    Time Temperature Precipitation Wind Pressure Humidity
    00:00 +20°C° 1.2 mm 2 mps 762 mmHg 98%
    01:00 +20°C° 1.2 mm 2 mps 761 mmHg 98%
    02:00 +20°C° 1.9 mm 2 mps 761 mmHg 98%
    03:00 +20°C° 1.9 mm 2 mps 761 mmHg 98%
    04:00 +20°C° 1.9 mm 2 mps 761 mmHg 98%
    05:00 +20°C° 1.5 mm 2 mps 761 mmHg 98%
    06:00 +20°C° 1.5 mm 2 mps 762 mmHg 98%
    07:00 +20°C° 1.5 mm 2 mps 762 mmHg 98%
    08:00 +20°C° 0.8 mm 2 mps 763 mmHg 97%
    09:00 +20°C° 0.8 mm 2 mps 763 mmHg 96%
    10:00 +20°C° 0.8 mm 2 mps 763 mmHg 96%
    11:00 +20°C° 0.6 mm 2 mps 763 mmHg 95%
    12:00 +20°C° 0.6 mm 2 mps 762 mmHg 95%
    13:00 +21°C° 0.6 mm 2 mps 761 mmHg 94%
    14:00 +21°C° 0.8 mm 2 mps 761 mmHg 94%
    15:00 +21°C° 0.8 mm 2 mps 761 mmHg 94%
    16:00 +21°C° 0.8 mm 2 mps 761 mmHg 94%
    17:00 +20°C° 0.8 mm 2 mps 761 mmHg 95%
    18:00 +20°C° 0.8 mm 2 mps 761 mmHg 96%
    19:00 +19°C° 0.8 mm 2 mps 762 mmHg 97%
    20:00 +19°C° 1 mm 2 mps 762 mmHg 97%
    21:00 +19°C° 1 mm 2 mps 762 mmHg 97%
    22:00 +19°C° 1 mm 2 mps 762 mmHg 97%
    23:00 +19°C° 0.5 mm 2 mps 762 mmHg 97%

    31 January, Friday

    Time Temperature Precipitation Wind Pressure Humidity
    00:00 +19°C° 0.5 mm 2 mps 762 mmHg 97%
    01:00 +19°C° 0.5 mm 2 mps 762 mmHg 96%
    02:00 +19°C° 0.5 mm 2 mps 762 mmHg 96%
    03:00 +19°C° 0.5 mm 2 mps 761 mmHg 96%
    04:00 +19°C° 0.5 mm 2 mps 761 mmHg 97%
    05:00 +19°C° 0.4 mm 2 mps 762 mmHg 96%
    06:00 +19°C° 0.4 mm 2 mps 762 mmHg 96%
    07:00 +19°C° 0.4 mm 2 mps 763 mmHg 96%
    08:00 +20°C° 0.4 mm 2 mps 763 mmHg 96%
    09:00 +20°C° 0.4 mm 2 mps 763 mmHg 95%
    10:00 +20°C° 0.4 mm 3 mps 763 mmHg 94%
    11:00 +21°C° 0.3 mm 3 mps 762 mmHg 93%
    12:00 +21°C° 0.3 mm 3 mps 762 mmHg 91%
    13:00 +22°C° 0.3 mm 3 mps 761 mmHg 90%
    14:00 +21°C° 0.3 mm 3 mps 761 mmHg 91%
    15:00 +21°C° 0.3 mm 3 mps 760 mmHg 92%
    16:00 +21°C° 0.3 mm 3 mps 760 mmHg 93%
    17:00 +20°C° 0.2 mm 3 mps 760 mmHg 94%
    18:00 +20°C° 0.2 mm 3 mps 761 mmHg 95%
    19:00 +20°C° 0.2 mm 3 mps 761 mmHg 96%
    20:00 +20°C° 0.3 mm 3 mps 762 mmHg 96%
    21:00 +20°C° 0.3 mm 3 mps 762 mmHg 96%
    22:00 +20°C° 0.3 mm 3 mps 762 mmHg 96%
    23:00 +20°C° 0.3 mm 3 mps 762 mmHg 96%

    1 February, Saturday

    Time Temperature Precipitation Wind Pressure Humidity
    00:00 +20°C° 0.3 mm 3 mps 762 mmHg 97%
    01:00 +20°C° 0.3 mm 2 mps 761 mmHg 97%
    02:00 +20°C° 0.2 mm 2 mps 761 mmHg 97%
    03:00 +20°C° 0.2 mm 2 mps 761 mmHg 96%
    04:00 +19°C° 0.2 mm 2 mps 761 mmHg 96%
    05:00 +20°C° 0.1 mm 2 mps 761 mmHg 96%
    06:00 +20°C° 0.1 mm 2 mps 762 mmHg 96%
    07:00 +20°C° 0.1 mm 2 mps 762 mmHg 96%
    08:00 +20°C° 0.1 mm 2 mps 762 mmHg 94%
    09:00 +21°C° 0.1 mm 2 mps 763 mmHg 92%
    10:00 +23°C° 0.1 mm 2 mps 763 mmHg 90%
    11:00 +24°C° 0.1 mm 2 mps 762 mmHg 85%
    12:00 +25°C° 0.1 mm 3 mps 761 mmHg 79%
    13:00 +26°C° 0.1 mm 3 mps 760 mmHg 74%
    14:00 +25°C° 0 mm 3 mps 760 mmHg 75%
    15:00 +25°C° 0 mm 3 mps 760 mmHg 77%
    16:00 +24°C° 0 mm 3 mps 759 mmHg 78%
    17:00 +22°C° 0 mm 3 mps 760 mmHg 82%
    18:00 +21°C° 0 mm 2 mps 760 mmHg 86%
    19:00 +20°C° 0 mm 2 mps 760 mmHg 90%
    20:00 +20°C° 0 mm 2 mps 761 mmHg 89%
    21:00 +21°C° 0 mm 1 mps 761 mmHg 88%
    22:00 +21°C° 0 mm 1 mps 762 mmHg 87%
    23:00 +21°C° 0 mm 1 mps 761 mmHg 87%

    2 February, Sunday

    Time Temperature Precipitation Wind Pressure Humidity
    00:00 +21°C° 0 mm 1 mps 761 mmHg 87%
    01:00 +21°C° 0 mm 1 mps 761 mmHg 87%
    02:00 +21°C° 0 mm 1 mps 761 mmHg 87%
    03:00 +21°C° 0 mm 1 mps 760 mmHg 87%
    04:00 +21°C° 0 mm 1 mps 760 mmHg 86%
    05:00 +20°C° 0 mm 1 mps 761 mmHg 88%
    06:00 +20°C° 0 mm 1 mps 761 mmHg 89%
    07:00 +20°C° 0 mm 1 mps 761 mmHg 90%
    08:00 +22°C° 0 mm 1 mps 762 mmHg 80%
    09:00 +24°C° 0 mm 2 mps 762 mmHg 71%
    10:00 +26°C° 0 mm 2 mps 762 mmHg 61%
    11:00 +27°C° 0 mm 2 mps 761 mmHg 60%
    12:00 +28°C° 0 mm 2 mps 760 mmHg 59%
    13:00 +28°C° 0 mm 2 mps 759 mmHg 57%
    14:00 +28°C° 0 mm 2 mps 759 mmHg 61%
    15:00 +27°C° 0 mm 3 mps 759 mmHg 65%
    16:00 +26°C° 0 mm 3 mps 758 mmHg 69%
    17:00 +24°C° 0 mm 2 mps 759 mmHg 77%
    18:00 +21°C° 0 mm 2 mps 759 mmHg 85%
    19:00 +20°C° 0 mm 1 mps 760 mmHg 93%
    20:00 +20°C° 0 mm 1 mps 760 mmHg 94%
    21:00 +20°C° 0 mm 1 mps 760 mmHg 94%
    22:00 +20°C° 0 mm 1 mps 760 mmHg 95%
    23:00 +20°C° 0 mm 1 mps 760 mmHg 95%
    Show more